Location: Dana
(41.8364°N, 106.7042°W)
Time: 20:45:48
(UTC+00:00)

Tiros 1 despin weight - Pass Details

Date: 16 May 2026
Orbit: 555 x 591 km, 48.2° (Epoch: 1 June)

Event Time Altitude Azimuth Distance (km) Brightness Sun altitude
Rises 13:42:19 0° 273° (W) 2,750 ? 19.8°
Reaches altitude 10° 13:44:42 10° 282° (WNW) 1,849 ? 20.2°
Maximum altitude 13:48:38 37° 351° (N) 878 ? 21.0°
Drops below altitude 10° 13:52:33 10° 59° (ENE) 1,838 ? 21.7°
Sets 13:54:56 0° 68° (ENE) 2,731 ? 22.1°
